• MPC Preparation (Info)

  • MPEC 2023-R223 : 2023 RA10

    The following Minor Planet Electronic Circular may be linked-to from your own Web pages, but must not otherwise be redistributed electronically.

    A form allowing access to any MPEC is at the bottom of this page.


    Read MPEC 2023-R222 Read MPEC 2023-R224


    M.P.E.C. 2023-R223                           Issued 2023 September 15, 13:07 UT
    
         The Minor Planet Electronic Circulars contain information on unusual
             minor planets, routine data on comets and natural satellites,
             and occasional editorial announcements.  They are published
        on behalf of Division F of the International Astronomical Union by the
              Minor Planet Center, Smithsonian Astrophysical Observatory,
                              Cambridge, MA 02138, U.S.A.
    			  
                 Prepared using the Tamkin Foundation Computer Network
    
                                  MPC@CFA.HARVARD.EDU
                URL https://www.minorplanetcenter.net/    ISSN 1523-6714
    
                                    2023 RA10                                
    
    
    Observations:
         K23R10A 1C2023 09 10.17759 21 41 10.89 +33 20 47.9          20.4 GVER223G96
         K23R10A 1C2023 09 10.19047 21 41 12.52 +33 15 39.6          20.1 GVER223G96
         K23R10A 1C2023 09 10.19690 21 41 13.24 +33 13 05.6          21.6 GVER223G96
         K23R10A* C2023 09 13.35196922 05 27.080-00 34 08.84         19.5 GVER223U68
         K23R10A  C2023 09 13.35589722 05 28.193-00 37 36.70         19.5 GVER223U68
         K23R10A  C2023 09 13.35900222 05 29.117-00 40 21.26         19.3 GVER223U68
         K23R10A  C2023 09 13.36292522 05 30.310-00 43 49.26         19.3 GVER223U68
         K23R10A  C2023 09 13.37309122 05 33.444-00 52 47.99         19.5 GVER223U68
         K23R10A  C2023 09 13.37702922 05 34.803-00 56 17.22         19.5 GVER223U68
         K23R10A  C2023 09 13.38015322 05 35.716-00 59 03.05         19.6 GVER223U68
         K23R10A  C2023 09 13.38409322 05 37.022-01 02 32.31         19.6 GVER223U68
         K23R10A  C2023 09 14.15739522 14 00.33 -12 34 50.0                WER223X09
         K23R10A  C2023 09 14.16208122 14 01.70 -12 39 13.1                WER223X09
         K23R10A 0B2023 09 14.82134722 22 11.151-22 54 44.69         21.3 VZER223M49
         K23R10A 0B2023 09 14.82835322 22 13.673-23 01 16.65         18.7 VZER223M49
         K23R10A 0B2023 09 14.83536022 22 16.174-23 07 48.14         19.0 VZER223M49
         K23R10A KC2023 09 14.92217322 23 00.106-24 42 42.16         19.3 GVER223J95
         K23R10A KC2023 09 14.93589622 23 06.377-24 55 07.54         19.4 GVER223J95
    
    Observer details:
    G96 Mt. Lemmon Survey.  Observer D. C. Fuls.  Measurers B. Gray, D. Rankin, F.
        C. Shelly.  1.5-m reflector + 10K CCD.
    J95 Great Shefford.  Observer P. Birtwhistle.  0.41-m f/6.3 Schmidt-Cassegrain
        + CCD.
    M49 IAS Remote Observatory, Hakos.  Observers D. Husar, M. Junius.  Measurer
        D. Husar.  0.25-m f/4.6 reflector + CMO.
    U68 JPL SynTrack Robotic Telescope, Auberry.  Observers N. Saini, C. Zhai, R.
        Trahan, M. Zhan, M. Shao.  0.28-m Reflector + CCD.
    X09 Deep Random Survey, Rio Hurtado.  Observers A. Schnabel, D. Ruhela.
        Measurer S. Deen.  0.43-m reflector + CMOS.
    
    Orbital elements:
    2023 RA10                                                Earth MOID = 0.0083 AU
    Epoch 2023 Sept. 13.0 TT = JDT 2460200.5                Veres                   
    M 237.47009              (2000.0)            P               Q                  
    n   0.99851876     Peri.  305.50581     -0.43979251     -0.89779329             
    a   0.9913612      Node   170.49795     +0.86312499     -0.42973651             
    e   0.0424000      Incl.    8.16547     +0.24818904     -0.09640409             
    P   0.99           H   28.80          G   0.15           U   5                  
    Residuals in seconds of arc
    230910 G96  0.3-  0.4-    230913 U68  0.3-  0.3-    230914 X09  0.6+  0.4+
    230910 G96  0.4+  0.3-    230913 U68  0.6-  0.1+    230914 M49  0.0   0.3+
    230910 G96  0.0   0.8+    230913 U68  0.9+  0.1-    230914 M49  0.1-  0.3+
    230913 U68  0.4+  0.2-    230913 U68  0.6-  0.1-    230914 M49  0.3+  0.0
    230913 U68  0.3-  0.0     230913 U68  0.4-  0.2-    230914 J95  0.4-  0.5-
    230913 U68  0.3-  0.1-    230914 X09  0.1+  0.5+    230914 J95  0.4+  0.5+
    
    Ephemeris:
    2023 RA10                a,e,i = 0.99, 0.04, 8                   q = 0.9493
    Date    TT    R. A. (2000) Decl.     Delta      r    Elong.  Phase     V
    2023 08 16    20 46 06.1 +64 57 53   0.06919 1.0276   100.4    75.8    25.7
    ...
    2023 08 31    21 02 14.1 +59 21 52   0.03556 1.0219   109.2    68.9    24.0
    ...
    2023 09 08    21 28 41.6 +44 33 42   0.01765 1.0180   125.1    54.1    22.0
    ...
    2023 09 14    22 12 23.6 -10 12 32   0.0089041.0146   160.7    19.1    19.5
    2023 09 15    22 23 47.3 -25 36 18   0.0090571.0140   152.8    27.0    19.8
    2023 09 16    22 37 00.9 -39 26 32   0.0098301.0133   141.4    38.3    20.3
    ...
    2023 09 22    00 53 31.1 -75 41 55   0.02071 1.0093   104.4    74.4    23.0
    ...
    2023 09 30    04 41 29.6 -79 53 28   0.03860 1.0037    91.9    85.9    24.8
    ...
    2023 10 15    06 41 25.8 -77 06 19   0.07117 0.9925    84.0    91.9    26.3
    
    M. P. C. Staff               (C) Copyright 2023 MPC           M.P.E.C. 2023-R223
    


    Read MPEC 2023-R222 Read MPEC 2023-R224


    MPEC number:

    Enter an MPEC number in one of the following forms:

    • 1997-B01 (the full form)
    • J97B01 (the packed version of the full form)
    • B01 (the abbreviated form)